Regional Weather Roundup
Issued by NWS

Home | Current Version | Previous Version | Text Only | Print | Product List | Glossary Off
Versions: 1 2 3 4 5 6 7 8 9 10 11 12 13 14 15 16 17 18 19 20 21 22 23 24 25 26 27 28 29 30 31 32 33 34 35 36 37 38 39 40 41 42 43 44 45 46 47 48 49 50

009
ASUS43 KFSD 260110
RWRSD

WEATHER ROUNDUP FOR SOUTH DAKOTA
NATIONAL WEATHER SERVICE SIOUX FALLS SD
700 PM CST SAT FEB 25 2017

NOTE: "FAIR" INDICATES FEW OR NO CLOUDS BELOW 12,000 FEET WITH NO
SIGNIFICANT WEATHER AND/OR OBSTRUCTIONS TO VISIBILITY.


SDZ001>005-009-010-012>017-260200-
NORTHWEST AND NORTH CENTRAL SOUTH DAKOTA

CITY           SKY/WX    TMP DP  RH WIND       PRES   REMARKS
BUFFALO          N/A     27  21  78 W17       29.61S WCI  14
FAITH            N/A     28  19  69 SW8       29.70F WCI  20
MOBRIDGE       CLEAR     28  20  71 MISG      29.70F
$$

SDZ012>016-024>037-041>051-057-063-072>074-260200-
SOUTHWEST AND SOUTH CENTRAL SOUTH DAKOTA

CITY           SKY/WX    TMP DP  RH WIND       PRES   REMARKS
RAPID CTY ARPT CLEAR     23  19  85 N6        29.69F WCI  16
PIERRE         CLEAR     28  21  75 N6        29.75F WCI  22
CUSTER         CLEAR     15   5  64 W8        29.61F WCI   4
ELLSWORTH AFB  MOCLDY    27  24  87 N6        29.69F WCI  21
PHILIP         CLOUDY    32  21  64 W3        29.75F
PINE RIDGE     CLEAR     20  11  68 SW9       29.75F WCI   9
SPEARFISH      FAIR      27  14  59 SW7       29.68S WCI  19
WINNER         FAIR      29  21  72 SW10      29.78F WCI  20
$$

SDZ004>011-016>023-039-040-260200-
NORTHEAST SOUTH DAKOTA

CITY           SKY/WX    TMP DP  RH WIND       PRES   REMARKS
ABERDEEN       LGT SNOW  28  23  81 N9        29.76S WCI  19
WATERTOWN      CLOUDY    29  21  72 SW21      29.74F WCI  16
BROOKINGS      CLEAR     25  18  74 S13       29.79F WCI  14
SISSETON         N/A     30  28  92 N9        29.75S WCI  22
$$

SDZ017-020-022-023-036>040-048>070-260200-
SOUTHEAST SOUTH DAKOTA

CITY           SKY/WX    TMP DP  RH WIND       PRES   REMARKS
SIOUX FALLS    CLOUDY    26  18  71 S15       29.84F WCI  14
HURON          CLOUDY    31  22  69 S8        29.77F WCI  23
CHAMBERLAIN    CLOUDY    32  24  72 SW6       29.77S WCI  26
MITCHELL       CLOUDY    29  21  72 S12       29.81F WCI  19
YANKTON        CLEAR     27  18  69 S7        29.85F WCI  19
$$

ABBREVIATIONS USED IN REMARKS
   TC - TEMPERATURE IN CELSIUS
  WCI - WIND CHILL INDEX
   HX - HEAT INDEX
  VSB - VISIBILITY





USA.gov is the U.S. government's official web portal to all federal, state and local government web resources and services.